This is the latest recevied weather packets stored in our database for station/object EA1IDU-12. If no packets are shown the sender has not sent any weather packets the latest 10 day(s).
| Time | Temp. | Humidity | Pressure | Rain* | Wind** | Luminosity | Snow |
|---|---|---|---|---|---|---|---|
| 1787389035 | 18.89° C | 80% | 1026.2 hPa | - | - | - | - |
| 1787388135 | 18.33° C | 85% | 1026.4 hPa | - | - | - | - |
| 1787387235 | 18.33° C | 88% | 1026.3 hPa | - | - | - | - |
| 1787386334 | 17.78° C | 91% | 1026.3 hPa | - | - | - | - |
| 1787385434 | 17.22° C | 92% | 1026.2 hPa | - | - | - | - |
| 1787384534 | 16.67° C | 93% | 1026.3 hPa | - | - | - | - |
| 1787383634 | 15.56° C | 92% | 1026.4 hPa | - | - | - | - |
| 1787382734 | 15° C | 90% | 1026.4 hPa | - | - | - | - |
| 1787381834 | 13.89° C | 90% | 1026.4 hPa | - | - | - | - |
| 1787380933 | 13.33° C | 91% | 1026.4 hPa | - | - | - | - |
| 1787380033 | 12.22° C | 93% | 1026.4 hPa | - | - | - | - |
| 1787379133 | 10.56° C | 95% | 1026.2 hPa | - | - | - | - |
| 1787378233 | 9.44° C | 96% | 1026.4 hPa | - | - | - | - |
| 1787377333 | 8.89° C | 95% | 1026.3 hPa | - | - | - | - |
| 1787376433 | 8.89° C | 95% | 1026.3 hPa | - | - | - | - |
| 1787375532 | 8.89° C | 95% | 1026.1 hPa | - | - | - | - |
| 1787374632 | 9.44° C | 95% | 1026.2 hPa | - | - | - | - |
| 1787373732 | 9.44° C | 95% | 1026.3 hPa | - | - | - | - |
| 1787372832 | 9.44° C | 95% | 1026.2 hPa | - | - | - | - |
| 1787371932 | 9.44° C | 95% | 1026.2 hPa | - | - | - | - |
| 1787371032 | 10° C | 95% | 1026.5 hPa | - | - | - | - |
| 1787370131 | 10° C | 96% | 1026.6 hPa | - | - | - | - |
| 1787369231 | 10° C | 95% | 1026.6 hPa | - | - | - | - |
| 1787368331 | 10° C | 94% | 1026.7 hPa | - | - | - | - |
| 1787367431 | 10° C | 95% | 1026.8 hPa | - | - | - | - |
* Rain since midnight (hover to see other rain measurements)
** Current wind speed in m/s (hover to see current wind gust speed)